Regional Weather Roundup
Issued by NWS Upton, NY

Current Version | Previous Version | Graphics & Text | Print | Product List | Glossary Off
Versions: 1 2 3 4 5 6 7 8 9 10 11 12 13 14 15 16 17 18 19 20 21 22 23 24 25 26 27 28 29 30 31 32 33 34 35 36 37 38 39 40 41 42 43 44 45 46 47 48 49 50

000
ASUS41 KOKX 010408
RWROKX

REGIONAL WEATHER ROUNDUP
NATIONAL WEATHER SERVICE NEW YORK NY
1200 AM EDT WED JUL 01 2015

NOTE: "FAIR" INDICATES FEW OR NO CLOUDS BELOW 12,000 FEET WITH NO
SIGNIFICANT WEATHER AND/OR OBSTRUCTIONS TO VISIBILITY.

NYZ071-072-176-178-NJZ106-104-010500-
NEW YORK CITY METRO AREA


CITY           SKY/WX    TMP DP  RH WIND       PRES   REMARKS
CENTRAL PARK   CLOUDY    74  68  81 VRB7      29.87F
LAGUARDIA APRT CLOUDY    74  68  81 S17G25    29.84F
KENNEDY INTL   CLOUDY    73  68  84 SE18      29.85F
NEWARK/LIBERTY MOCLDY    74  70  87 SE6       29.84S
BRNX BOT. GARD   N/A     73  68  83 SE12      29.88S
TETERBORO      MOCLDY    74  68  81 VRB6      29.83F
$$

NYZ177-179-078>081-010500-
LONG ISLAND NEW YORK

CITY           SKY/WX    TMP DP  RH WIND       PRES   REMARKS
FARMINGDALE    CLOUDY    73  68  84 S17G24    29.88F
ISLIP          CLOUDY    72  68  87 SE13      29.87F
SHIRLEY        CLOUDY    71  67  87 SE10      29.90F
WESTHAMPTON    MOCLDY    70  69  97 SE9G17    29.92F
MONTAUK POINT    N/A     70  66  87 VRB6      29.94F
$$

NYZ052-065-067-010500-
HUDSON VALLEY

CITY           SKY/WX    TMP DP  RH WIND       PRES   REMARKS
WHITE PLAINS   CLOUDY    71  68  90 SE9       29.86F
NEWBURGH       NOT AVBL
MONTGOMERY     CLOUDY    67  66  97 NE5       29.83F FOG
POUGHKEEPSIE   CLOUDY    73  65  75 SE5       29.84F
ALBANY         CLOUDY    70  60  70 VRB3      29.86S
$$

NJZ001-105-106-008-010-013-015-019>022-104-010500-
NEW JERSEY

CITY           SKY/WX    TMP DP  RH WIND       PRES   REMARKS
NEWARK/LIBERTY MOCLDY    74  70  87 SE6       29.84S
TETERBORO      MOCLDY    74  68  81 VRB6      29.83F
CALDWELL       CLOUDY    72  68  87 CALM      29.84F
MORRISTOWN     CLOUDY    75  70  83 CALM      29.84F
SOMERVILLE     CLOUDY    72  69  90 CALM      29.82S
SUSSEX         LGT RAIN  69  66  90 CALM      29.83F
ANDOVER          N/A     71  68  90 VRB6      29.84F
TRENTON        CLOUDY    72  70  93 S7        29.82F
MILLVILLE      PTCLDY    75  72  90 VRB6      29.83F
ATLANTIC CITY  PTCLDY    75  71  87 S12       29.84F
WRIGHTSTOWN    MOCLDY    73  73  99 S8        29.81F
TOMS RIVER     CLOUDY    73  72  94 S8        29.85F
BELMAR         CLOUDY    73  68  83 S9        29.85F
$$

PAZ047>061-062-071-010500-
EASTERN PENNSYLVANIA

CITY           SKY/WX    TMP DP  RH WIND       PRES   REMARKS
PHILADELPHIA   MOCLDY    74  70  87 CALM      29.82F
ALLENTOWN      PTCLDY    71  67  87 CALM      29.82F
SCRANTON       LGT RAIN  65  63  93 VRB3      29.85S FOG
$$

CTZ002-004>006-009-010-012-RIZ004-006-007-MAZ004-011-015-010500-
SOUTHERN NEW ENGLAND
 IN CT

CITY           SKY/WX    TMP DP  RH WIND       PRES   REMARKS
BRADLEY INTL   CLOUDY    69  60  73 S7        29.90F
HARTFORD       CLOUDY    70  62  76 SE7       29.91S
DANBURY        CLOUDY    69  62  78 SE6       29.89F
WTRBRY/OXFORD  CLOUDY    68  61  77 SE9       29.91F
BRIDGEPORT     MOCLDY    71  66  84 E7        29.89F
MERIDEN        CLOUDY    71  62  73 VRB5      29.91F
NEW HAVEN      CLOUDY    70  65  84 E8        29.90F
CHESTER        FAIR      66  64  94 SE7       29.94F
GROTON         MOCLDY    68  64  87 SE9       29.93F
WILLIMANTIC    CLOUDY    69  62  78 S5        29.94F

 IN RI

CITY           SKY/WX    TMP DP  RH WIND       PRES   REMARKS
PROVIDENCE     CLOUDY    68  63  84 S6        29.96F
BLOCK ISLAND   MOCLDY    68  63  83 SE13      29.95F
WESTERLY       MOCLDY    68  64  87 SE8       29.94F

 IN MA

CITY           SKY/WX    TMP DP  RH WIND       PRES   REMARKS
BOSTON         PTCLDY    67  61  81 S7        29.96F
WORCESTER      MOCLDY    65  58  78 SE5       29.97F
WESTFIELD      CLOUDY    68  59  73 SE3       29.92S
PROVINCETOWN   PTCLDY    64   9  11 S8        29.98F
NANTUCKET      PTCLDY    63  59  87 SE9       29.97F
$$

ANZ330-335-338-340-345-350-353-355-010500-
COASTAL MARINE OBSERVATIONS


STATION/POSITION TIME  SKY/WX   TEMP    WIND        PRES    VSBY  WAVE
                                AIR SEA DIR/SP/G                  HT/PER
                 (UTC)          (F)     (DEG/KT/KT) (MB)    (MI)  (FT/S)
NY HARB ENTRANCE 0350            71 68  150/ 16/ 17 1010.3          3/ 5
4S FIRE IS       0303               67                N/A           3/ 8
20S FIRE ISLAND  0350            70 66  150/ 16/ 17 1011.1          3/ 8
GREAT SOUTH BAY  0315            71 74  170/ 14/ 19   N/A
23SW MTP         0350            69 66  160/ 10/ 12 1013.0          3/ 8
HUDSON CANYON    NOT AVBL
KINGS POINT      0300            74 65  180/ 11/ 16 1011.1
CENTRAL LI SOUND NOT AVBL
EASTERN LI SOUND 0300            66     130/ 12/ 14   N/A
ROBBINS REEF     0300            71     160/ 19/ 21 1009.8
$$


>>>>>>>>>>>>>>>>>>>>>>>>>>>> KEY <<<<<<<<<<<<<<<<<<<<<<<<<<<
>                                                          <
>     SKY/WX - SKY CONDITION/PRESENT WEATHER               <
>     TMP    - TEMPERATURE IN FAHRENHEIT                   <
>     DP     - DEWPOINT IN FAHRENHEIT                      <
>     RH     - RELATIVE HUMIDITY IN PERCENT                <
>     WIND   - DIRECTION AND SPEED IN MPH                  <
>     PRES   - MEAN SEA LEVEL PRESSURE IN INCHES OF HG     <
>     WCI    - WIND CHILL INDEX                            <
>     VSB    - VISIBILITY IN MILES                         <
>     HX     - HEAT INDEX                                  <
>     TC     - TEMPERATURE IN CELSIUS                      <
>     VRB    - VARIABLE WIND DIRECTION                     <
>                                                          <
>>>>>>>>>>>>>>>>>>>>>>>>>>>> KEY <<<<<<<<<<<<<<<<<<<<<<<<<<<





USA.gov is the U.S. government's official web portal to all federal, state and local government web resources and services.